GFSSGP_250_rhum_336.txt.gz
RH
7 4 5 40 65 56 54 54 68 42 28 22 42 34 36 38 32 39 37 62 60 74 76 100 100 100 99 100 100 76 39 55 66 42 31 30 37 35 34 20 17 20 22 19 24 25 26 29 28
14 5 5 13 43 53 75 60 62 60 40 26 32 33 36 33 28 40 30 57 66 76 79 100 100 88 61 100 100 76 46 36 45 40 36 23 36 43 35 29 26 28 27 25 23 25 25 26 28
15 11 6 6 8 47 50 66 54 63 57 55 44 30 37 35 27 29 52 66 73 86 100 99 100 84 65 78 100 92 60 44 39 41 39 27 31 36 46 42 32 34 31 24 25 27 28 27 27
38 22 11 7 6 7 14 14 28 42 58 52 51 41 36 33 34 26 40 42 90 80 73 88 100 88 100 64 100 84 61 45 42 37 44 41 36 35 39 52 53 49 48 27 29 29 26 28 26
68 58 44 17 15 12 9 15 12 13 23 37 33 31 52 58 40 35 31 32 65 64 50 56 100 100 100 100 100 100 70 36 50 40 39 61 44 42 37 39 37 36 31 28 27 45 34 35 44
15 19 46 70 46 45 67 52 43 42 21 36 43 57 56 71 55 56 40 30 44 45 41 41 88 100 100 100 91 100 76 45 48 56 49 61 30 45 36 37 36 36 39 43 35 36 34 41 39
22 17 11 11 20 75 92 100 100 95 89 96 87 56 62 79 77 67 59 45 35 33 26 33 79 100 100 100 100 100 96 63 28 84 90 87 36 33 33 36 37 39 44 53 57 64 52 46 47
21 18 17 16 14 22 51 66 79 86 97 100 84 98 68 62 57 57 56 46 41 43 33 36 77 99 100 99 100 100 100 32 27 50 100 83 52 25 30 32 32 37 40 44 65 57 58 58 39
21 24 18 17 14 11 14 14 11 14 32 48 92 94 91 71 89 94 83 52 38 38 41 33 43 75 100 100 100 79 83 68 38 98 100 80 52 28 26 25 25 26 31 32 55 70 85 51 71
42 36 25 16 16 14 13 15 18 17 12 12 23 80 100 88 75 91 94 91 50 53 55 55 43 43 100 88 99 73 100 65 41 60 100 100 35 33 30 36 26 35 32 37 37 63 59 60 78
55 63 62 44 46 44 44 48 38 21 22 21 14 14 40 85 100 90 70 66 80 90 80 75 73 45 62 100 93 59 100 66 45 82 100 85 47 42 28 36 34 26 29 31 36 36 31 53 77
62 64 61 52 60 54 57 52 44 38 29 19 21 17 12 11 18 51 95 89 87 83 100 100 100 82 48 59 84 58 97 100 53 74 82 67 61 34 26 31 38 30 24 26 37 39 46 52 57
43 59 63 74 66 68 76 86 58 50 42 31 16 20 20 12 10 11 28 63 88 93 83 100 100 100 86 63 100 68 87 100 81 54 52 64 70 35 38 26 39 40 31 34 35 39 49 51 49
54 70 81 80 96 65 79 86 71 56 59 54 24 16 16 19 15 11 10 11 17 41 82 100 100 100 100 98 95 84 100 100 78 67 61 72 59 37 43 31 35 40 36 41 32 31 45 70 77
60 73 92 89 61 59 58 86 87 81 60 52 36 25 16 14 17 15 13 13 12 19 33 66 100 100 100 100 100 93 100 100 97 76 72 81 47 34 38 34 29 40 41 46 36 31 44 70 88
95 67 98 89 56 40 39 48 59 94 53 54 31 17 18 18 18 17 16 14 14 14 15 21 36 79 100 99 100 100 100 100 98 89 82 91 49 43 30 31 41 49 42 40 49 42 47 60 98
94 75 68 87 60 37 34 60 56 77 67 51 49 13 19 19 18 25 28 22 22 17 12 14 25 31 42 89 68 81 100 100 100 73 80 97 64 49 36 31 40 56 54 47 52 54 50 62 100
28 46 67 57 58 44 39 58 48 61 59 56 43 19 17 19 19 47 67 51 34 34 24 11 12 20 24 35 72 57 100 100 100 89 100 92 88 73 43 30 45 58 65 54 53 62 60 67 78
26 27 49 54 47 47 49 64 60 70 62 60 36 13 18 19 62 63 85 90 56 41 56 27 41 18 21 35 38 48 54 66 100 91 100 92 99 79 40 35 51 73 64 59 64 61 74 97 92
25 23 30 47 42 44 57 48 80 71 61 50 27 10 17 20 62 60 79 72 56 52 46 70 47 56 43 34 43 59 61 66 100 54 81 62 74 64 38 60 58 47 40 62 77 100 96 61 100
25 22 22 52 33 20 41 56 74 52 64 55 40 9 15 16 31 49 64 82 88 53 57 51 66 29 60 38 55 100 100 78 100 58 75 77 75 59 64 71 52 41 50 65 78 91 80 100 100
26 26 22 24 30 42 21 56 60 63 80 65 45 8 17 20 22 38 68 75 95 69 56 46 44 64 38 19 26 32 54 45 52 80 78 76 75 72 96 80 69 63 52 57 80 82 100 100 92
29 29 25 22 23 26 21 52 71 52 91 67 49 8 17 20 26 43 66 70 100 82 77 71 50 43 50 45 34 17 34 31 36 42 82 66 70 94 100 100 89 78 69 82 88 99 100 89 84
28 31 26 24 21 30 36 42 72 72 75 71 41 9 8 19 36 30 38 59 97 100 99 89 66 49 49 45 60 66 11 16 29 37 50 80 100 100 100 100 90 72 68 67 77 98 73 76 59
30 36 31 30 27 54 47 43 72 82 69 66 39 19 8 14 27 58 60 49 52 80 72 64 59 42 44 36 44 75 21 16 37 40 63 100 80 100 100 86 91 59 59 63 92 75 82 54 69
28 34 34 28 57 57 24 29 64 74 77 59 49 36 6 10 19 36 52 76 75 56 61 66 56 44 35 28 27 64 30 30 70 100 100 68 93 100 100 88 53 50 71 86 96 78 61 44 60
26 28 33 30 26 26 20 31 71 70 75 61 57 50 7 8 19 23 36 52 88 65 52 97 82 40 30 24 34 71 78 56 72 100 83 92 100 100 93 82 100 94 81 100 77 48 58 96 69
28 26 28 30 26 38 28 33 89 75 72 64 61 52 8 8 19 24 31 46 63 51 88 100 81 71 50 29 50 70 91 87 72 85 100 100 96 81 72 82 93 100 94 75 63 64 99 81 51
25 24 23 26 27 26 54 49 86 89 83 70 60 52 14 7 14 19 39 68 47 58 100 100 100 100 81 79 69 86 98 100 100 100 90 78 75 64 85 100 91 89 96 95 95 79 83 50 22
22 23 24 26 29 21 22 23 81 96 91 68 50 45 15 6 8 19 41 78 71 69 100 100 100 96 100 100 100 100 90 86 88 88 94 91 68 97 100 96 77 98 88 77 79 81 46 23 24

GFSSGP_250_rhum_339.txt.gz
RH
5 5 8 49 100 41 29 32 50 57 42 28 34 47 42 35 38 52 50 56 64 70 89 100 98 100 39 100 91 40 30 24 33 34 22 22 27 30 27 19 21 28 25 22 24 26 29 29 31
6 18 100 27 93 56 28 35 48 62 56 31 30 43 42 34 35 37 63 63 47 69 82 100 100 87 43 100 92 71 37 26 29 36 30 26 29 33 32 29 29 38 28 24 26 26 23 27 27
13 6 66 76 58 41 52 65 81 59 69 41 30 34 38 34 31 31 40 55 54 68 72 83 100 81 68 99 100 69 44 31 33 34 39 33 30 31 43 45 37 42 39 25 27 24 21 21 25
12 7 11 22 53 66 100 100 100 63 63 66 43 31 37 33 34 33 51 59 58 86 98 57 99 96 100 69 100 86 58 50 43 44 40 28 34 32 34 33 39 35 28 28 43 40 30 23 26
40 36 35 10 23 77 100 100 96 74 54 71 66 52 41 30 32 34 31 72 81 87 85 58 96 100 100 100 100 100 84 47 38 47 61 27 30 32 33 35 34 32 38 36 33 34 39 33 31
62 44 57 37 15 9 12 16 27 38 59 66 70 61 52 39 32 28 28 49 66 87 72 51 95 90 100 100 100 100 95 50 34 35 81 30 23 22 28 33 34 35 45 48 46 49 40 37 33
59 13 12 32 68 69 40 10 8 11 15 36 54 48 37 30 26 29 37 32 41 61 61 45 74 87 100 100 100 100 100 75 36 35 98 44 26 21 21 23 28 33 37 46 64 50 48 42 36
19 11 11 13 11 13 53 73 55 53 51 28 29 49 55 60 46 40 45 42 31 44 50 36 38 96 100 100 100 100 100 61 32 90 99 79 39 21 21 24 26 31 29 36 56 83 60 63 37
25 19 14 16 25 18 22 21 55 92 82 78 97 90 92 81 66 75 54 60 51 43 53 32 32 63 100 100 100 100 100 28 24 46 45 99 45 26 24 26 28 29 30 30 52 65 46 63 64
56 32 26 26 22 19 14 14 18 22 59 76 86 80 98 89 78 61 80 70 61 50 44 48 44 43 100 100 100 100 100 47 27 47 86 100 72 44 20 32 26 26 29 31 30 29 41 65 63
63 48 36 35 49 42 37 42 37 23 12 11 14 29 58 98 88 74 64 55 62 60 56 54 48 69 83 100 100 100 96 35 42 52 98 85 65 41 22 35 34 26 32 36 37 41 47 44 41
56 59 53 54 59 57 62 43 44 48 44 32 16 12 10 22 94 86 62 65 100 93 57 63 64 46 74 100 89 100 78 100 90 52 100 82 67 71 33 28 30 29 33 30 33 43 46 40 33
57 76 99 86 71 58 92 71 41 44 43 44 32 18 14 10 15 70 89 64 71 84 80 72 67 74 41 49 100 100 65 98 92 100 87 72 48 69 48 27 31 31 38 35 32 39 59 74 67
72 64 71 92 59 64 68 78 71 72 53 49 40 18 18 15 12 11 29 72 74 62 61 74 95 96 87 45 78 100 91 62 69 100 75 33 44 57 55 33 27 28 35 41 36 32 45 72 99
68 69 63 94 74 53 54 71 65 50 48 46 53 37 18 19 15 9 9 10 23 73 69 63 83 97 100 98 75 77 100 100 81 100 93 44 60 58 44 31 28 26 27 32 41 44 46 64 98
64 70 54 95 64 56 41 63 60 49 48 54 59 46 18 22 19 16 10 9 9 14 59 79 88 92 100 100 99 100 99 96 97 100 87 68 66 67 35 30 27 28 46 48 46 47 54 57 95
64 70 100 100 78 73 51 88 54 62 53 58 52 35 18 24 19 18 15 12 10 9 11 22 67 95 93 100 100 100 94 100 96 100 98 72 70 70 43 34 26 30 38 47 53 49 54 63 98
66 59 65 55 100 52 51 57 67 99 70 75 56 44 12 22 20 20 16 18 17 13 11 11 19 38 90 100 100 100 100 79 100 100 98 81 61 89 54 49 41 26 34 56 48 46 52 79 91
29 26 31 61 53 41 48 57 39 100 85 66 69 49 11 19 17 17 37 27 25 23 17 10 14 31 50 88 97 94 100 100 100 100 100 71 42 82 83 77 57 28 41 56 42 43 78 100 90
25 39 50 30 41 38 23 42 39 44 63 62 78 28 11 14 16 26 69 69 43 29 47 20 27 16 24 39 54 68 79 99 95 100 100 81 54 96 100 99 55 33 54 38 34 79 96 99 100
27 30 59 41 31 46 24 38 42 52 64 67 56 46 13 16 19 47 81 71 52 38 35 47 33 66 38 35 32 24 52 63 100 100 100 82 68 100 95 81 47 68 46 37 54 99 100 100 100
26 70 49 20 19 34 49 27 27 46 74 64 38 27 8 18 21 53 70 70 80 53 31 35 56 52 72 47 45 49 38 51 69 95 90 84 73 77 73 73 51 68 61 59 81 100 82 100 96
41 94 55 28 20 16 34 41 40 28 65 53 44 41 13 14 16 34 51 56 68 67 46 42 35 48 42 75 64 78 76 57 53 47 70 50 79 77 69 70 88 83 73 100 90 67 47 51 67
39 36 35 31 19 16 96 78 37 70 64 54 47 48 30 8 19 22 23 48 60 65 60 56 46 42 48 52 58 65 96 100 67 53 100 95 89 76 74 74 99 96 69 83 71 49 42 58 78
28 33 31 29 97 100 100 74 34 29 68 57 45 52 50 8 14 30 29 46 56 77 77 78 58 54 52 40 43 60 63 84 100 76 100 73 74 77 79 93 100 77 64 60 55 45 99 89 72
24 27 42 42 66 100 100 91 41 28 62 64 53 45 46 7 8 20 37 30 37 62 62 61 48 48 35 48 58 50 72 44 49 74 58 67 71 84 84 100 95 73 75 72 38 92 68 59 66
42 29 31 37 28 16 56 100 42 31 56 74 64 61 40 14 8 18 24 62 40 49 47 48 37 36 24 22 53 53 78 36 24 29 34 40 57 77 94 72 89 93 100 100 67 78 100 94 87
23 34 30 31 35 26 100 53 97 77 26 80 76 67 43 20 7 15 18 43 72 68 44 43 39 26 23 21 21 51 37 22 20 41 49 44 72 58 60 93 100 78 47 94 86 65 100 72 58
18 21 29 34 29 28 26 34 100 100 61 72 95 63 24 7 7 12 22 36 53 56 50 62 46 35 27 27 58 52 52 54 31 64 65 100 75 60 89 88 76 44 100 71 58 81 56 63 43
18 19 21 27 24 20 23 32 56 58 21 78 100 64 31 24 6 10 24 31 47 41 63 81 99 98 47 56 73 97 100 100 72 88 100 100 86 90 60 57 97 94 39 68 99 71 73 45 23

GFSSGP_250_rhum_342.txt.gz
RH
6 68 99 74 29 31 38 59 28 30 33 34 27 26 37 45 39 41 47 50 79 68 67 100 100 87 72 98 68 49 27 24 27 27 18 20 23 29 27 27 33 34 26 25 27 23 23 24 32
6 18 80 89 61 69 42 31 37 53 57 52 28 30 43 35 34 36 41 51 67 63 86 100 100 91 98 100 81 62 36 34 36 30 18 17 26 34 36 37 36 43 27 34 28 20 21 24 37
6 14 41 16 71 46 60 42 36 40 50 61 34 29 40 42 39 33 37 50 53 60 76 100 95 98 100 100 100 76 54 47 53 35 16 17 22 28 33 41 36 28 26 34 37 24 18 22 32
12 39 98 100 79 51 55 57 41 46 50 55 51 27 35 42 34 34 34 48 64 54 58 88 100 100 100 100 100 96 84 62 58 37 18 18 20 23 30 29 27 27 32 27 30 29 28 26 26
15 100 59 98 100 64 75 100 98 53 28 44 55 36 25 35 34 36 36 28 44 64 69 53 100 100 100 100 100 99 92 76 65 62 26 24 19 18 23 29 29 30 37 32 37 33 36 34 29
49 62 36 46 72 69 61 99 100 55 38 55 52 69 55 29 34 34 43 35 55 45 90 53 95 100 99 100 100 100 99 81 58 88 42 29 19 19 20 22 26 26 24 46 45 36 37 34 29
92 13 12 26 45 25 66 96 100 100 80 39 48 63 71 58 39 34 35 32 46 73 63 63 88 89 100 100 100 100 100 70 65 100 62 46 24 26 23 24 28 26 24 35 46 58 46 35 27
27 14 10 10 16 64 68 80 98 46 25 17 35 44 59 68 65 48 33 32 31 58 57 55 66 96 100 100 100 100 100 75 59 25 37 52 35 39 22 23 24 25 26 37 47 31 46 44 30
100 52 14 17 15 13 10 14 27 43 79 27 13 14 25 39 42 34 48 34 32 39 42 52 54 100 100 100 100 100 100 89 23 18 34 87 56 43 24 24 26 28 28 33 30 31 48 50 36
78 22 26 33 37 32 26 18 16 15 21 79 80 70 27 13 15 24 30 34 41 43 52 48 44 79 100 100 100 100 100 100 44 31 51 80 54 48 27 25 25 30 28 29 42 44 34 31 38
64 39 60 47 55 45 34 24 22 26 26 16 19 86 94 62 46 28 35 29 76 56 62 53 48 39 100 100 100 100 100 99 62 45 77 89 57 57 34 26 26 28 24 24 31 42 47 40 29
98 42 40 50 60 78 59 47 40 40 28 25 15 12 27 88 100 78 50 36 60 69 72 69 64 37 83 100 100 100 100 100 79 90 100 100 80 42 50 32 26 28 29 31 26 40 60 84 100
71 51 60 29 36 36 40 40 41 31 34 28 33 29 15 10 28 97 95 49 45 67 74 64 70 64 61 100 100 100 100 100 84 100 81 82 84 37 41 54 30 29 28 31 37 36 47 68 100
100 51 36 30 32 35 37 70 62 46 37 30 29 34 29 15 11 12 51 99 47 42 50 68 62 60 50 74 98 100 100 100 100 99 78 65 56 34 42 50 38 29 25 28 35 41 49 55 99
71 63 52 43 70 65 51 79 95 75 47 39 29 28 35 16 13 11 9 25 89 48 43 62 64 67 70 55 54 79 100 100 92 98 100 90 100 52 45 51 34 28 27 35 39 42 38 56 82
64 62 68 97 100 100 72 91 92 58 70 86 49 40 38 23 13 13 10 8 19 84 46 56 66 70 72 82 68 55 49 100 100 100 100 90 97 64 43 59 30 27 24 28 39 40 33 47 78
73 80 91 100 100 100 70 42 40 94 100 100 98 49 37 20 11 14 12 12 9 15 58 58 52 50 60 75 98 100 71 95 100 82 100 100 94 66 47 60 35 32 33 25 31 43 31 49 98
56 100 92 100 100 100 59 42 37 63 99 100 86 38 47 11 12 15 12 14 13 8 8 32 54 46 44 49 74 100 100 99 90 96 99 100 100 85 69 60 42 54 49 28 34 37 36 81 100
33 56 73 98 100 55 44 41 33 45 81 92 33 50 47 18 11 14 16 15 17 14 9 7 9 44 63 54 46 73 100 100 96 87 96 100 100 100 80 60 66 67 64 31 43 29 90 100 100
32 32 42 59 75 38 39 36 35 72 32 44 42 80 94 76 12 13 16 20 21 20 16 9 8 8 30 59 54 62 98 100 92 88 97 100 100 95 68 41 42 92 65 43 42 64 95 100 98
72 47 30 91 100 40 27 37 35 36 53 30 40 44 97 100 12 13 23 35 35 31 26 16 10 8 11 16 44 65 75 100 100 95 70 98 100 100 72 39 57 74 54 49 55 100 100 100 93
100 46 23 43 50 20 23 24 60 50 44 66 32 41 42 49 10 13 29 59 45 40 36 32 24 14 19 28 35 44 81 100 93 100 97 100 100 99 72 62 73 58 48 48 87 100 99 71 51
87 35 32 38 47 16 24 100 100 97 100 98 72 39 74 100 10 14 47 68 73 66 61 31 39 17 49 57 48 43 74 78 89 84 100 100 100 82 66 64 51 55 41 88 100 100 62 46 91
42 30 65 100 64 32 100 100 100 97 97 95 28 36 47 81 24 10 26 55 55 65 64 43 27 28 74 85 81 77 65 61 56 50 78 100 100 97 85 54 46 51 70 100 100 70 60 76 83
21 31 94 100 38 90 100 89 90 92 55 22 14 32 41 58 49 7 16 25 63 56 68 52 38 31 48 82 71 78 72 75 71 49 36 79 98 68 52 40 47 86 86 100 85 59 82 65 64
20 19 100 50 20 75 100 94 100 99 89 23 14 14 35 62 37 8 11 20 20 49 60 67 54 42 38 47 54 77 70 67 78 92 45 60 64 42 56 63 52 72 100 62 96 100 94 78 73
18 23 20 31 20 80 95 100 100 99 97 60 63 56 28 23 18 6 9 17 22 29 62 70 65 49 35 42 59 48 61 70 72 87 66 64 83 100 74 53 54 92 98 95 100 100 99 70 41
17 33 25 31 60 38 74 74 100 100 100 100 89 84 32 27 27 7 11 20 19 28 30 34 40 32 32 22 48 58 48 50 47 73 89 70 100 87 78 91 100 60 85 100 94 90 82 56 61
9 19 49 78 28 24 29 86 100 90 80 96 94 50 20 29 29 20 7 15 18 43 39 42 37 28 18 18 17 52 50 77 44 34 70 73 100 100 100 77 63 75 100 99 97 76 76 92 62
9 19 25 48 26 20 14 58 100 100 99 75 95 37 13 34 26 32 35 16 29 37 50 44 37 29 25 22 23 48 58 34 18 14 29 57 85 85 86 71 63 63 64 100 100 98 78 63 58

GFSSGP_250_rhum_345.txt.gz
RH
22 21 22 20 27 26 31 46 35 40 41 32 28 22 26 34 43 36 78 63 100 64 97 100 100 100 89 87 55 43 37 29 18 15 22 22 29 33 35 38 36 25 36 31 19 18 23 35 35
8 20 48 30 22 30 41 58 35 29 29 30 36 31 24 32 33 29 62 63 58 67 82 100 86 100 100 100 92 72 65 34 16 15 19 20 18 30 41 35 25 25 25 25 19 17 23 31 27
10 39 50 28 34 33 28 36 28 35 39 39 48 46 24 33 36 30 31 58 38 71 74 100 94 100 99 100 100 93 67 47 18 17 17 17 16 20 24 29 30 30 28 29 23 22 24 24 30
14 10 10 16 36 28 41 62 39 28 36 31 39 52 25 28 40 33 28 29 44 58 68 100 99 98 95 100 100 96 90 57 20 26 22 20 18 20 22 26 29 33 34 35 29 32 31 28 33
30 79 97 94 53 68 59 55 43 51 33 30 34 39 41 26 38 34 32 26 35 53 60 68 100 100 100 100 100 100 93 95 40 30 25 23 23 18 19 22 22 22 29 43 33 32 33 28 23
96 100 100 100 79 86 78 81 50 38 24 19 22 32 50 28 30 34 38 32 25 32 61 58 79 100 89 100 100 100 92 100 66 37 39 31 33 19 16 21 20 24 33 42 50 44 33 26 23
100 100 19 15 52 100 100 100 100 90 89 72 47 46 56 70 44 28 36 37 37 24 43 83 80 100 74 100 100 100 97 100 69 41 47 45 32 22 21 18 18 22 33 42 27 38 32 24 25
100 94 31 10 9 40 100 87 95 100 100 90 71 58 20 57 66 35 34 51 37 34 39 70 87 100 100 100 100 100 100 93 63 50 69 64 37 28 24 19 18 22 32 32 28 36 45 31 22
97 99 24 9 8 9 26 63 62 65 98 100 100 66 59 13 62 58 40 40 41 46 52 51 83 100 86 82 100 100 100 100 58 74 96 78 43 32 30 25 19 20 25 32 40 28 32 30 32
90 43 12 12 15 16 13 15 18 22 27 51 54 68 49 15 11 51 56 37 28 38 50 59 73 72 100 100 100 100 83 100 90 59 100 71 55 39 30 28 26 20 21 26 41 63 81 97 95
62 25 20 16 23 23 23 23 22 26 24 19 10 13 68 79 46 13 24 41 41 30 34 48 46 57 100 100 100 83 90 76 89 82 100 94 59 38 38 40 29 25 26 27 28 44 69 87 50
46 40 30 20 26 27 31 25 24 28 30 29 23 18 9 13 75 45 31 12 16 24 28 39 52 56 100 100 100 99 100 100 61 82 100 100 100 54 27 45 39 28 27 36 33 39 63 88 78
52 51 31 24 41 27 33 48 52 54 54 42 29 27 24 13 9 40 75 49 13 9 20 28 51 61 57 100 100 98 100 96 99 86 89 85 88 71 34 36 40 33 26 27 42 32 48 68 100
99 62 40 32 34 38 46 52 69 66 80 46 75 64 39 23 12 9 21 84 66 20 16 25 55 70 57 44 100 93 100 100 100 98 99 79 92 82 62 37 37 30 24 30 34 33 32 51 72
62 50 40 37 30 62 98 75 52 74 46 68 70 86 55 25 14 15 9 17 82 71 26 26 46 67 81 54 45 100 100 100 100 99 100 70 69 92 78 36 38 31 28 27 28 32 30 36 61
50 74 46 42 69 100 89 67 38 35 32 60 89 67 45 51 13 9 11 7 20 79 72 37 43 68 74 82 53 73 100 100 94 100 100 100 96 97 98 40 41 33 33 36 30 29 26 55 88
45 66 60 58 100 100 96 59 44 31 45 52 52 90 89 93 79 14 11 10 8 30 78 75 44 43 60 70 69 56 85 93 96 88 100 100 98 92 97 49 43 46 42 43 39 31 27 75 100
58 70 77 97 100 100 87 59 56 40 46 32 44 33 100 98 84 30 10 10 10 8 20 47 78 47 42 46 62 72 60 72 89 86 95 100 94 77 99 79 60 47 53 62 40 38 35 99 80
100 41 100 100 100 100 80 48 51 33 42 35 34 28 92 100 58 22 17 11 10 8 8 12 40 67 55 47 46 60 71 81 100 100 90 94 99 73 100 96 83 46 57 75 50 42 51 100 100
59 46 79 76 58 49 74 58 26 26 47 34 51 33 28 84 76 52 66 10 10 10 8 7 8 18 37 57 57 51 59 71 100 98 92 100 100 81 83 100 69 43 52 48 52 41 98 99 100
21 58 52 36 48 60 100 98 52 92 100 100 100 63 39 65 63 87 98 35 16 15 12 10 9 8 7 13 45 49 46 58 85 100 84 98 100 81 85 100 86 62 42 42 46 46 96 100 74
12 28 49 37 42 54 78 100 100 92 100 100 76 72 30 45 48 27 46 74 39 38 20 21 19 17 9 7 8 22 40 47 48 68 99 93 87 98 100 77 100 68 43 39 41 86 100 98 65
100 50 52 71 26 43 39 37 49 92 94 100 72 71 23 22 30 50 71 45 62 37 45 42 28 33 23 9 7 13 19 50 56 50 97 85 85 79 57 97 100 64 40 46 49 89 99 49 52
100 72 61 51 32 28 28 67 49 100 100 100 68 77 15 20 14 100 100 92 95 39 58 57 45 37 49 74 29 24 28 52 58 72 70 100 97 100 100 100 87 52 38 41 95 100 90 70 82
100 98 62 52 22 39 78 100 95 100 100 100 86 73 36 53 15 26 76 96 92 65 48 74 62 45 49 100 94 78 66 74 62 68 76 85 100 100 94 100 71 52 38 69 100 100 81 100 97
31 99 40 61 42 86 74 99 100 100 87 89 100 94 84 61 21 11 8 9 56 62 54 60 72 56 44 68 100 100 97 95 87 73 90 94 92 100 100 96 81 47 60 98 100 72 78 94 89
16 79 63 19 41 100 43 98 100 100 100 100 92 44 43 39 26 26 9 13 31 53 19 38 66 65 65 49 71 98 94 93 90 83 65 57 60 86 100 93 98 99 41 87 94 98 98 89 96
10 16 24 20 49 53 53 94 100 100 72 100 95 54 37 37 22 30 18 14 37 40 29 29 51 62 61 47 50 73 61 73 99 97 82 88 56 74 86 63 100 46 68 82 64 100 79 100 72
21 11 14 17 21 60 61 92 100 98 100 83 81 78 62 57 14 28 28 16 16 15 29 23 36 46 44 51 59 84 75 63 64 86 85 100 72 59 100 99 84 100 74 47 100 98 98 91 75
14 11 12 15 19 19 36 58 100 61 100 86 84 100 93 79 16 34 50 22 26 21 32 42 23 31 42 35 64 70 81 71 66 73 63 100 92 98 100 61 100 100 71 100 88 98 91 80 64